Terminal Aerodrome Forecast
Issued by NWS Raleigh/Durham, NC

Current Version | Previous Version | Text Only | Print | Product List | Glossary On
Versions: 1 2 3 4 5 6 7 8 9 10 11 12 13 14 15 16 17 18 19 20 21 22 23 24 25 26 27 28 29 30 31 32 33 34 35 36
000 FTUS42 KRAH 231741 TAFFAY TAF KFAY 231741Z 2318/2418 VRB03KT 5SM -RA BKN025 OVC035 FM232200 08007KT 3SM RA BKN006 OVC012 TEMPO 2322/2324 2SM RA BR OVC003 FM240000 12011G16KT 2SM RA BR OVC003 FM240400 18013G20KT 6SM -RA BR BKN006 OVC030 FM241600 22018G25KT P6SM BKN025=

USA.gov is the U.S. government's official web portal to all federal, state and local government web resources and services.